Location: Catstown
(52.4386°N, 7.2633°W)
Time: 12:54:09
(UTC+00:00)

SPOT 1/Viking Rocket - Pass Details

Date: 18 September 2020
Orbit: 777 x 794 km, 98.5° (Epoch: 25 October)

Event Time Altitude Azimuth Distance (km) Brightness Sun altitude
Exits shadow 21:14:24 58° 107° (ESE) 916 3.5 -23.3°
Maximum altitude 21:15:03 64° 70° (ENE) 872 3.5 -23.3°
Drops below altitude 10° 21:20:11 10° 350° (N) 2,352 6.6 -24.0°
Sets 21:22:31 0° 347° (NNW) 3,282 7.6 -24.2°
